FW9002 Weather Reports


Display with metric or nautical units.
time (UTC)temp
F
wind
direction
speed
MPH
gust
MPH
rain 1hr
in
rain 24hr
in
rain mn
in
humidity
%
barometer
mb
20260906123057 77 88 1.0 1.0 0.00 0.00 0.00 55 1012.8
20260906122556 77 88 0.0 0.0 0.00 0.00 0.00 55 1012.6
20260906122052 77 88 0.0 0.0 0.00 0.00 0.00 54 1012.7
20260906121548 77 86 1.0 1.0 0.00 0.00 0.00 54 1012.8
20260906121044 77 86 0.0 0.0 0.00 0.00 0.00 54 1012.8
20260906120540 77 79 1.0 1.0 0.00 0.00 0.00 54 1012.8
20260906120037 78 88 1.0 1.0 0.00 0.00 0.00 54 1012.6
20260906115536 78 80 2.0 2.0 0.00 0.00 0.00 55 1012.6
20260906115032 78 84 1.0 1.0 0.00 0.00 0.00 55 1012.6
20260906114526 78 85 0.0 0.0 0.00 0.00 0.00 55 1012.4
20260906114021 78 83 0.0 0.0 0.00 0.00 0.00 54 1012.2
20260906113520 78 58 1.0 1.0 0.00 0.00 0.00 54 1012.2
20260906113016 78 68 1.0 1.0 0.00 0.00 0.00 54 1012.5
20260906112511 79 77 0.0 0.0 0.00 0.00 0.00 53 1012.2
20260906112007 79 76 0.0 0.0 0.00 0.00 0.00 53 1012.1
20260906111506 79 77 1.0 1.0 0.00 0.00 0.00 53 1012.1
20260906111001 79 89 0.0 0.0 0.00 0.00 0.00 51 1012.4
20260906110456 79 96 0.0 0.0 0.00 0.00 0.00 52 1012.0
20260906105954 79 85 1.0 1.0 0.00 0.00 0.00 52 1012.0
20260906105452 79 93 1.0 1.0 0.00 0.00 0.00 52 1012.2
20260906104947 79 119 1.0 1.0 0.00 0.00 0.00 52 1012.0
20260906104446 79 120 1.0 1.0 0.00 0.00 0.00 53 1012.2
20260906103945 79 84 0.0 0.0 0.00 0.00 0.00 54 1012.1
20260906103443 79 77 0.0 0.0 0.00 0.00 0.00 54 1012.2
20260906102938 79 77 0.0 0.0 0.00 0.00 0.00 54 1012.2
20260906102438 79 77 0.0 0.0 0.00 0.00 0.00 55 1012.1
20260906101933 79 77 0.0 0.0 0.00 0.00 0.00 55 1012.1
20260906101428 79 77 0.0 0.0 0.00 0.00 0.00 55 1012.1
20260906100924 79 66 0.0 0.0 0.00 0.00 0.00 56 1012.1
20260906100424 79 66 0.0 0.0 0.00 0.00 0.00 56 1012.4
20260906095918 79 66 0.0 0.0 0.00 0.00 0.00 55 1011.9
20260906095414 78 66 0.0 0.0 0.00 0.00 0.00 56 1011.9
20260906094908 78 66 0.0 0.0 0.00 0.00 0.00 57 1011.9
20260906094403 78 65 0.0 0.0 0.00 0.00 0.00 57 1011.9
20260906093859 78 66 0.0 0.0 0.00 0.00 0.00 57 1011.8
20260906093355 78 66 0.0 0.0 0.00 0.00 0.00 56 1011.8
20260906092855 78 66 0.0 0.0 0.00 0.00 0.00 56 1011.8
20260906092355 78 66 0.0 0.0 0.00 0.00 0.00 56 1012.0
20260906091850 79 66 0.0 0.0 0.00 0.00 0.00 56 1011.9
20260906091347 79 66 1.0 1.0 0.00 0.00 0.00 56 1011.9
20260906090843 79 65 0.0 0.0 0.00 0.00 0.00 56 1011.9
20260906090342 78 65 1.0 1.0 0.00 0.00 0.00 56 1012.0
20260906085836 78 65 0.0 0.0 0.00 0.00 0.00 56 1011.9
20260906085330 79 65 0.0 0.0 0.00 0.00 0.00 56 1012.2
20260906084825 79 65 0.0 0.0 0.00 0.00 0.00 56 1012.0
20260906084325 79 65 0.0 0.0 0.00 0.00 0.00 55 1012.0
20260906083819 79 65 0.0 0.0 0.00 0.00 0.00 54 1012.1
20260906083315 79 65 0.0 0.0 0.00 0.00 0.00 55 1011.9
20260906082809 79 65 0.0 0.0 0.00 0.00 0.00 54 1012.0
20260906082306 80 65 0.0 0.0 0.00 0.00 0.00 54 1012.1
20260906081800 80 65 0.0 0.0 0.00 0.00 0.00 53 1012.0
20260906081255 80 58 0.0 0.0 0.00 0.00 0.00 53 1012.0
20260906080752 80 57 0.0 0.0 0.00 0.00 0.00 53 1012.1
20260906080248 80 57 0.0 0.0 0.00 0.00 0.00 53 1012.2
20260906075748 81 57 0.0 0.0 0.00 0.00 0.00 52 1011.9
20260906075247 81 57 0.0 0.0 0.00 0.00 0.00 50 1012.1
20260906074743 82 57 0.0 0.0 0.00 0.00 0.00 49 1012.1
20260906074242 82 57 0.0 0.0 0.00 0.00 0.00 49 1012.1
20260906073742 82 57 0.0 0.0 0.00 0.00 0.00 49 1012.2
20260906073237 82 57 0.0 0.0 0.00 0.00 0.00 49 1012.6
20260906072732 81 53 1.0 1.0 0.00 0.00 0.00 51 1012.6
20260906072228 81 51 0.0 0.0 0.00 0.00 0.00 52 1012.5
20260906071724 81 51 0.0 0.0 0.00 0.00 0.00 52 1012.4
20260906071224 81 51 0.0 0.0 0.00 0.00 0.00 51 1012.5
20260906070721 82 51 0.0 0.0 0.00 0.00 0.00 50 1012.7
20260906070216 82 51 0.0 0.0 0.00 0.00 0.00 49 1012.5
20260906065715 82 51 0.0 0.0 0.00 0.00 0.00 49 1012.5
20260906065211 82 51 0.0 0.0 0.00 0.00 0.00 49 1012.2
20260906064706 82 51 0.0 0.0 0.00 0.00 0.00 49 1012.1
20260906064201 82 51 0.0 0.0 0.00 0.00 0.00 49 1012.5
20260906063656 82 50 0.0 1.0 0.00 0.00 0.00 49 1012.4
20260906063152 83 45 0.0 0.0 0.00 0.00 0.00 48 1012.6
20260906062648 83 45 0.0 0.0 0.00 0.00 0.00 48 1012.5
20260906062146 83 44 0.0 0.0 0.00 0.00 0.00 47 1012.5
20260906061643 83 44 0.0 0.0 0.00 0.00 0.00 47 1012.6
20260906061143 84 44 0.0 0.0 0.00 0.00 0.00 46 1012.7
20260906060639 84 44 0.0 0.0 0.00 0.00 0.00 45 1012.5
20260906060136 84 44 0.0 0.0 0.00 0.00 0.00 44 1012.5
20260906055632 84 44 0.0 0.0 0.00 0.00 0.00 45 1012.7
20260906055127 84 44 0.0 0.0 0.00 0.00 0.00 45 1012.4
20260906054622 84 44 0.0 0.0 0.00 0.00 0.00 44 1012.6
20260906054117 85 44 0.0 0.0 0.00 0.00 0.00 44 1012.6
20260906053614 85 44 0.0 0.0 0.00 0.00 0.00 43 1012.6
20260906053108 84 44 0.0 0.0 0.00 0.00 0.00 43 1012.6
20260906052604 84 44 0.0 0.0 0.00 0.00 0.00 43 1012.4
20260906052101 84 43 0.0 0.0 0.00 0.00 0.00 44 1012.7
20260906051556 85 43 0.0 0.0 0.00 0.00 0.00 44 1012.6
20260906051051 85 43 0.0 0.0 0.00 0.00 0.00 43 1012.7
20260906050546 86 42 0.0 0.0 0.00 0.00 0.00 42 1012.6
20260906050042 86 43 0.0 0.0 0.00 0.00 0.00 41 1012.5
20260906045539 86 347 0.0 0.0 0.00 0.00 0.00 41 1012.7
20260906045036 86 346 0.0 0.0 0.00 0.00 0.00 41 1012.8
20260906044531 86 346 0.0 0.0 0.00 0.00 0.00 40 1012.5
20260906044026 87 347 0.0 0.0 0.00 0.00 0.00 39 1012.6
20260906043522 87 346 0.0 0.0 0.00 0.00 0.00 38 1012.6
20260906043018 88 346 0.0 0.0 0.00 0.00 0.00 37 1012.7
20260906042516 88 327 1.0 1.0 0.00 0.00 0.00 37 1012.5
20260906042011 89 17 0.0 0.0 0.00 0.00 0.00 37 1012.5
20260906041508 89 1 1.0 1.0 0.00 0.00 0.00 37 1012.2
20260906041007 88 8 0.0 1.0 0.00 0.00 0.00 37 1012.6
20260906040503 89 7 1.0 1.0 0.00 0.00 0.00 36 1012.4
20260906035957 89 306 2.0 2.0 0.00 0.00 0.00 36 1012.7
20260906035453 89 0 1.0 1.0 0.00 0.00 0.00 36 1012.4
20260906034948 89 348 1.0 1.0 0.00 0.00 0.00 36 1012.4
20260906034443 89 293 0.0 1.0 0.00 0.00 0.00 36 1012.2
20260906033938 90 353 0.0 0.0 0.00 0.00 0.00 36 1012.6
20260906033433 90 342 1.0 1.0 0.00 0.00 0.00 36 1012.4
20260906032928 90 299 1.0 1.0 0.00 0.00 0.00 36 1011.9
20260906032425 90 351 3.0 6.0 0.00 0.00 0.00 36 1012.0
20260906031919 90 341 1.0 1.0 0.00 0.00 0.00 36 1011.9
20260906031414 90 358 1.0 1.0 0.00 0.00 0.00 36 1011.8
20260906030909 90 329 1.0 2.0 0.00 0.00 0.00 36 1011.8
20260906030404 90 293 2.0 2.0 0.00 0.00 0.00 35 1011.9
20260906025859 90 334 0.0 0.0 0.00 0.00 0.00 35 1011.8
20260906025353 90 288 2.0 2.0 0.00 0.00 0.00 35 1011.6
20260906024852 90 315 1.0 1.0 0.00 0.00 0.00 35 1011.7
20260906024351 90 300 3.0 3.0 0.00 0.00 0.00 35 1011.5
20260906023846 90 308 3.0 3.0 0.00 0.00 0.00 35 1011.7
20260906023342 91 304 1.0 1.0 0.00 0.00 0.00 35 1011.6
20260906022837 91 297 1.0 1.0 0.00 0.00 0.00 34 1011.6
20260906022338 91 318 1.0 1.0 0.00 0.00 0.00 34 1011.5
20260906021833 91 313 1.0 1.0 0.00 0.00 0.00 34 1011.2
20260906021332 91 322 3.0 2.0 0.00 0.00 0.00 34 1011.5
20260906020828 91 8 2.0 2.0 0.00 0.00 0.00 34 1011.4
20260906020327 91 10 2.0 3.0 0.00 0.00 0.00 34 1011.3
20260906015822 92 288 2.0 2.0 0.00 0.00 0.00 34 1011.4
20260906015320 92 299 3.0 5.0 0.00 0.00 0.00 34 1011.6
20260906014815 92 302 2.0 2.0 0.00 0.00 0.00 33 1011.4
20260906014310 92 333 5.0 7.0 0.00 0.00 0.00 33 1011.4
20260906013806 92 300 3.0 3.0 0.00 0.00 0.00 33 1011.4
20260906013301 92 18 1.0 1.0 0.00 0.00 0.00 33 1011.2
20260906012757 93 298 5.0 6.0 0.00 0.00 0.00 33 1011.5
20260906012251 93 272 5.0 7.0 0.00 0.00 0.00 32 1011.4
20260906011747 93 305 3.0 7.0 0.00 0.00 0.00 32 1011.3
20260906011246 93 316 3.0 5.0 0.00 0.00 0.00 32 1011.5
20260906010742 93 287 2.0 2.0 0.00 0.00 0.00 32 1011.5
20260906010238 94 295 5.0 6.0 0.00 0.00 0.00 32 1011.4
20260906005733 94 301 2.0 3.0 0.00 0.00 0.00 32 1011.5
20260906005232 95 345 4.0 7.0 0.00 0.00 0.00 31 1011.1
20260906004731 95 290 2.0 2.0 0.00 0.00 0.00 32 1011.1
20260906004227 95 300 4.0 6.0 0.00 0.00 0.00 31 1011.1
20260906003722 95 274 2.0 2.0 0.00 0.00 0.00 31 1011.2
20260906003218 96 288 5.0 8.0 0.00 0.00 0.00 31 1011.4
20260906002717 96 271 3.0 5.0 0.00 0.00 0.00 31 1011.5
20260906002212 96 300 5.0 7.0 0.00 0.00 0.00 30 1011.2
20260906001708 96 291 5.0 7.0 0.00 0.00 0.00 30 1011.3
20260906001207 96 292 4.0 5.0 0.00 0.00 0.00 30 1011.3
20260906000703 96 340 7.0 10.0 0.00 0.00 0.00 30 1011.1
20260906000158 97 276 5.0 9.0 0.00 0.00 0.00 30 1011.1
20260905235657 97 288 3.0 3.0 0.00 0.00 0.00 30 1011.1
20260905235152 97 319 5.0 7.0 0.00 0.00 0.00 30 1011.0
20260905234647 97 283 5.0 8.0 0.00 0.00 0.00 29 1011.1
20260905234143 97 276 3.0 3.0 0.00 0.00 0.00 29 1011.4
20260905233638 98 314 4.0 5.0 0.00 0.00 0.00 29 1011.1
20260905233137 97 268 3.0 3.0 0.00 0.00 0.00 29 1011.2
20260905232633 97 303 4.0 5.0 0.00 0.00 0.00 29 1011.3
20260905232128 97 291 5.0 7.0 0.00 0.00 0.00 29 1011.3
20260905231623 97 282 4.0 5.0 0.00 0.00 0.00 29 1011.5
20260905231120 99 269 4.0 6.0 0.00 0.00 0.00 28 1011.4
20260905230615 98 296 3.0 5.0 0.00 0.00 0.00 28 1011.5
20260905230113 98 306 5.0 6.0 0.00 0.00 0.00 28 1011.4
20260905225613 98 293 3.0 5.0 0.00 0.00 0.00 28 1011.4
20260905225108 97 277 3.0 3.0 0.00 0.00 0.00 29 1011.4
20260905224608 98 262 3.0 3.0 0.00 0.00 0.00 28 1011.3
20260905224107 98 299 4.0 6.0 0.00 0.00 0.00 29 1011.5
20260905223605 97 248 3.0 3.0 0.00 0.00 0.00 28 1011.5
20260905223101 97 295 3.0 6.0 0.00 0.00 0.00 29 1011.3
20260905222600 98 306 3.0 5.0 0.00 0.00 0.00 29 1011.7
20260905222055 97 288 4.0 7.0 0.00 0.00 0.00 29 1011.8
20260905221552 98 309 7.0 10.0 0.00 0.00 0.00 29 1011.8
20260905221048 98 324 3.0 2.0 0.00 0.00 0.00 29 1011.8
20260905220543 99 276 4.0 6.0 0.00 0.00 0.00 28 1011.9
20260905220039 98 295 1.0 2.0 0.00 0.00 0.00 29 1011.8
20260905215538 98 303 4.0 6.0 0.00 0.00 0.00 28 1012.0
20260905215035 98 298 3.0 6.0 0.00 0.00 0.00 29 1012.0
20260905214530 98 307 3.0 5.0 0.00 0.00 0.00 29 1011.9
20260905214025 98 319 5.0 7.0 0.00 0.00 0.00 29 1012.4
20260905213521 98 315 3.0 3.0 0.00 0.00 0.00 28 1012.2
20260905213016 97 302 3.0 5.0 0.00 0.00 0.00 30 1012.2
20260905212511 98 301 6.0 7.0 0.00 0.00 0.00 29 1012.5
20260905212010 98 300 2.0 2.0 0.00 0.00 0.00 29 1012.5
20260905211506 98 317 5.0 6.0 0.00 0.00 0.00 29 1012.5
20260905211001 98 21 2.0 2.0 0.00 0.00 0.00 29 1012.6
20260905210457 98 306 5.0 7.0 0.00 0.00 0.00 29 1012.8
20260905205956 97 24 3.0 3.0 0.00 0.00 0.00 30 1012.7
20260905205451 97 357 1.0 2.0 0.00 0.00 0.00 29 1012.8
20260905204949 97 321 3.0 3.0 0.00 0.00 0.00 29 1012.9
20260905204446 97 358 2.0 2.0 0.00 0.00 0.00 31 1012.9
20260905203945 97 7 3.0 3.0 0.00 0.00 0.00 30 1013.1
20260905203440 97 335 3.0 5.0 0.00 0.00 0.00 30 1013.0
20260905202936 96 9 2.0 2.0 0.00 0.00 0.00 31 1013.0
20260905202431 97 216 2.0 2.0 0.00 0.00 0.00 30 1013.4
20260905201926 97 269 2.0 3.0 0.00 0.00 0.00 30 1013.5
20260905201421 97 308 2.0 2.0 0.00 0.00 0.00 31 1013.2
20260905200921 98 300 5.0 6.0 0.00 0.00 0.00 30 1013.5
20260905200417 98 300 1.0 1.0 0.00 0.00 0.00 30 1013.5
20260905195915 98 352 3.0 3.0 0.00 0.00 0.00 30 1013.8
20260905195411 97 304 3.0 3.0 0.00 0.00 0.00 31 1013.6
20260905194906 98 32 3.0 5.0 0.00 0.00 0.00 30 1013.8
20260905194406 96 291 2.0 3.0 0.00 0.00 0.00 32 1013.9
20260905193906 96 298 5.0 6.0 0.00 0.00 0.00 31 1013.8
20260905193401 96 274 3.0 3.0 0.00 0.00 0.00 32 1013.8
20260905192856 96 250 1.0 2.0 0.00 0.00 0.00 31 1013.6
20260905192351 96 325 4.0 6.0 0.00 0.00 0.00 33 1014.0
20260905191851 95 136 1.0 1.0 0.00 0.00 0.00 33 1014.1
20260905191349 95 294 2.0 3.0 0.00 0.00 0.00 34 1014.3
20260905190844 96 322 2.0 2.0 0.00 0.00 0.00 34 1014.4
20260905190343 95 352 1.0 1.0 0.00 0.00 0.00 33 1014.4
20260905185841 95 188 3.0 2.0 0.00 0.00 0.00 34 1014.2
20260905185337 94 258 6.0 7.0 0.00 0.00 0.00 35 1014.4
20260905184836 94 278 1.0 1.0 0.00 0.00 0.00 37 1014.4
20260905184335 94 285 3.0 3.0 0.00 0.00 0.00 36 1014.7
20260905183834 95 246 3.0 3.0 0.00 0.00 0.00 35 1014.6
20260905183329 95 278 2.0 2.0 0.00 0.00 0.00 36 1014.8
20260905182824 93 158 1.0 0.0 0.00 0.00 0.00 35 1014.9
20260905182323 93 261 4.0 5.0 0.00 0.00 0.00 36 1014.8
20260905181819 94 315 2.0 3.0 0.00 0.00 0.00 36 1015.0
20260905181318 93 253 3.0 2.0 0.00 0.00 0.00 35 1014.9
20260905180818 93 272 3.0 3.0 0.00 0.00 0.00 36 1015.2
20260905180313 93 214 2.0 2.0 0.00 0.00 0.00 36 1015.2
20260905175808 93 352 0.0 0.0 0.00 0.00 0.00 37 1014.9
20260905175306 93 299 4.0 5.0 0.00 0.00 0.00 36 1015.3
20260905174758 93 297 3.0 5.0 0.00 0.00 0.00 37 1015.2
20260905174253 93 259 1.0 1.0 0.00 0.00 0.00 38 1015.2
20260905173749 94 297 2.0 2.0 0.00 0.00 0.00 38 1015.3
20260905173245 93 89 1.0 1.0 0.00 0.00 0.00 39 1015.2
20260905172744 94 277 1.0 1.0 0.00 0.00 0.00 37 1015.3
20260905172243 93 306 1.0 2.0 0.00 0.00 0.00 36 1015.4
20260905171740 91 318 1.0 1.0 0.00 0.00 0.00 40 1015.4
20260905171236 91 32 2.0 2.0 0.00 0.00 0.00 41 1015.5
20260905170732 91 22 1.0 1.0 0.00 0.00 0.00 39 1015.5
20260905170228 91 250 0.0 0.0 0.00 0.00 0.00 39 1015.4
20260905165726 91 229 1.0 1.0 0.00 0.00 0.00 41 1015.7
20260905165217 90 66 0.0 0.0 0.00 0.00 0.00 41 1015.5
20260905164717 90 93 2.0 2.0 0.00 0.00 0.00 42 1015.5
20260905164217 90 221 2.0 2.0 0.00 0.00 0.00 42 1015.6
20260905163712 91 252 3.0 3.0 0.00 0.00 0.00 41 1015.5
20260905163209 90 92 0.0 0.0 0.00 0.00 0.00 43 1015.6
20260905162705 90 119 0.0 0.0 0.00 0.00 0.00 43 1015.4
20260905162204 90 95 2.0 2.0 0.00 0.00 0.00 43 1015.6
20260905161700 90 70 1.0 2.0 0.00 0.00 0.00 43 1015.4
20260905161157 89 102 1.0 1.0 0.00 0.00 0.00 44 1015.5
20260905160656 89 91 0.0 1.0 0.00 0.00 0.00 43 1015.7
20260905160155 89 106 1.0 1.0 0.00 0.00 0.00 45 1015.4
20260905155650 90 85 1.0 1.0 0.00 0.00 0.00 44 1015.4
20260905155149 90 81 1.0 1.0 0.00 0.00 0.00 43 1015.3
20260905154644 90 97 0.0 0.0 0.00 0.00 0.00 43 1015.4
20260905154139 89 111 0.0 0.0 0.00 0.00 0.00 45 1015.5
20260905153635 88 103 0.0 0.0 0.00 0.00 0.00 46 1015.3
20260905153130 88 132 1.0 1.0 0.00 0.00 0.00 46 1015.6
20260905152625 87 120 0.0 0.0 0.00 0.00 0.00 50 1015.8
20260905152120 86 63 0.0 0.0 0.00 0.00 0.00 50 1015.5
20260905151615 85 63 1.0 1.0 0.00 0.00 0.00 51 1015.6
20260905151110 84 105 1.0 1.0 0.00 0.00 0.00 53 1015.3
20260905150606 85 82 2.0 2.0 0.00 0.00 0.00 54 1015.5
20260905150103 85 76 1.0 1.0 0.00 0.00 0.00 53 1015.3
20260905145556 85 76 1.0 1.0 0.00 0.00 0.00 52 1015.6
20260905145056 85 77 0.0 0.0 0.00 0.00 0.00 54 1015.5
20260905144551 84 76 0.0 0.0 0.00 0.00 0.00 55 1015.5
20260905144050 82 76 0.0 0.0 0.00 0.00 0.00 57 1015.5
20260905143550 82 78 1.0 1.0 0.00 0.00 0.00 58 1015.6
20260905143045 82 84 0.0 1.0 0.00 0.00 0.00 59 1015.6
20260905142544 82 87 0.0 0.0 0.00 0.00 0.00 57 1015.5
20260905142039 81 103 1.0 1.0 0.00 0.00 0.00 58 1015.2
20260905141538 80 107 1.0 1.0 0.00 0.00 0.00 60 1015.3
20260905141035 79 114 1.0 1.0 0.00 0.00 0.00 63 1015.3
20260905140530 78 126 1.0 1.0 0.00 0.00 0.00 65 1015.3
20260905140029 78 127 0.0 0.0 0.00 0.00 0.00 65 1015.0
20260905135525 78 126 0.0 0.0 0.00 0.00 0.00 65 1014.9
20260905135019 78 108 1.0 1.0 0.00 0.00 0.00 65 1014.9
20260905134514 77 85 0.0 0.0 0.00 0.00 0.00 66 1014.8
20260905134013 76 85 0.0 0.0 0.00 0.00 0.00 69 1014.7
20260905133508 75 85 1.0 1.0 0.00 0.00 0.00 72 1014.6
20260905133002 74 85 0.0 0.0 0.00 0.00 0.00 73 1014.6
20260905132457 74 85 0.0 0.0 0.00 0.00 0.00 72 1014.5
20260905131951 74 85 0.0 0.0 0.00 0.00 0.00 73 1014.4
20260905131447 74 85 0.0 1.0 0.00 0.00 0.00 74 1014.4
20260905130948 73 85 0.0 0.0 0.00 0.00 0.00 74 1014.3
20260905130441 73 85 0.0 0.0 0.00 0.00 0.00 75 1014.4
20260905125941 73 85 0.0 1.0 0.00 0.00 0.00 76 1014.5
20260905125436 73 85 0.0 0.0 0.00 0.00 0.00 75 1014.3
20260905124932 74 85 0.0 0.0 0.00 0.00 0.00 75 1014.4
20260905124428 74 85 0.0 0.0 0.00 0.00 0.00 74 1014.3
20260905123928 74 85 0.0 0.0 0.00 0.00 0.00 73 1014.1
20260905123425 74 85 0.0 0.0 0.00 0.00 0.00 73 1014.1